Flag for U.S.A. Weather past 2 weeks in Arden-Arcade, California, U.S.A.

Now
82 °F

Sunny.


Feels Like: 80 °F
Forecast: 62 / 99 °F
Wind: 3 mph from West

Location: Mather Field

Current Time: Jul 24, 2014 at 9:22:49 PM

Latest Report: Jul 24, 2014 at 8:45 PM


Visibility: 10 mi

Pressure: 29.79 "Hg

Humidity: 19%

Dew point: 36 °F

Location of Arden-ArcadeLocation

Historic Weather in Arden-Arcade — Graph

°F

Arden-Arcade temperature yesterday

Maximum temperature yesterday: 86 °F (at 4:55 PM)
Minimum temperature yesterday: 55 °F (at 5:46 AM)
Average temperature yesterday: 72 °F

Past Weeks' High & Low Weather Summary

 TemperatureHumidityPressure
High106 °F (Jul 14, 3:55 PM)100% (Jul 10, 3:48 AM)30.13 "Hg (Jul 10, 3:48 AM)
Low55 °F (Jul 23, 5:46 AM)13% (Jul 24, 7:50 PM)29.78 "Hg (Jul 24, 7:50 PM)
Average74 °F57%29.94 "Hg
* Reported Jul 9 7:48 PM — Jul 24 7:50 PM, Arden-Arcade, Weather by CustomWeather, © 2014

Note: Actual official high and low records may vary slightly from our data, if they occured in-between our weather recording intervals... More about our weather records

Advertising

Arden-Arcade weather history for previous 24 hours

 ConditionsComfort  
Time TempWeatherWind HumidityBarometerVisibility
7:50 PM
Jul 24
91 °FSunny.5 mph13%29.78 "Hg10 mi
6:47 PM93 °FPassing clouds.5 mph14%29.79 "Hg10 mi
5:45 PM95 °FPassing clouds.6 mph14%29.80 "Hg10 mi
3:48 PM93 °FPassing clouds.15 mph21%29.84 "Hg10 mi
2:50 PM93 °FPassing clouds.10 mph23%29.86 "Hg10 mi
1:45 PM91 °FSunny.10 mph24%29.89 "Hg10 mi
11:56 AM84 °FSunny.10 mph35%29.94 "Hg10 mi
10:45 AM81 °FSunny.6 mph42%29.97 "Hg10 mi
9:45 AM77 °FSunny.8 mph47%29.98 "Hg10 mi
8:45 AM72 °FSunny.3 mph61%30.00 "Hg10 mi
7:55 AM66 °FSunny.No wind73%29.99 "Hg10 mi
6:45 AM59 °FClear.No wind100%29.98 "Hg10 mi
5:50 AM59 °FClear.3 mph94%29.98 "Hg10 mi
4:50 AM59 °FClear.No wind94%29.98 "Hg10 mi
3:54 AM59 °FClear.5 mph94%29.98 "Hg10 mi
2:47 AM59 °FClear.3 mph88%29.99 "Hg10 mi
11:30 PM
Jul 23
64 °FClear.5 mph73%29.99 "Hg10 mi
10:45 PM68 °FClear.No wind69%29.99 "Hg10 mi
9:45 PM72 °FClear.6 mph65%29.98 "Hg10 mi
Weather by CustomWeather, © 2014

See weather overviewHow to use our weather pages